Weather History for Ft Pierce, FL

Change the Weather History Date:

Monday, September 23, 2013

  Actual Average Record
Temperature  
Mean Temperature 78 °F -  
Max Temperature 86 °F 88 °F 94 °F (1942)
Min Temperature 71 °F 71 °F 68 °F (1964)
Cooling Degree Days 12    
Growing Degree Days 28 (Base 50)    
Moisture  
Dew Point 73 °F    
Average Humidity 92    
Maximum Humidity 100    
Minimum Humidity 66    
Precipitation  
Precipitation 1.59 in - - ()
Sea Level Pressure  
Sea Level Pressure 29.94 in    
Wind  
Wind Speed 3 mph (ESE)    
Max Wind Speed 13 mph    
Max Gust Speed 25 mph    
Visibility 6 miles    
Events Fog , Rain    
Averages and records for this station are not official NWS values.
T = Trace of Precipitation, MM = Missing Value Source: NWS Daily Summary

Daily Weather History Graph

Daily Weather History Graph

Search for Another Location

Airport:

Trip Planner

Search our weather history database for the weather conditions in past years. The results will help you decide how hot, cold, wet, or windy it might be!

Date:

Astronomy

Sep. 23, 2013 Rise Set
Actual Time 7:10 AM EDT 7:16 PM EDT
Civil Twilight 6:47 AM EDT 7:39 PM EDT
Nautical Twilight 6:20 AM EDT 8:06 PM EDT
Astronomical Twilight 5:52 AM EDT 8:34 PM EDT
Moon 10:12 PM EDT (9/23) 11:04 AM EDT (9/23)
Length of Visible Light 12h 52m
Length of Day
12h 05m
Waning Gibbous, 81% of the Moon is Illuminated
Sep 23
Waning Gibbous
Sep 26
Last Quarter
Oct 4
New
Oct 11
First Quarter
Oct 18
Full

Hourly Weather History & Observations

Time (EDT) Temp. Heat Index Dew Point Humidity Pressure Visibility Wind Dir Wind Speed Gust Speed Precip Events Conditions
12:53 AM 75.0 °F - 72.0 °F 90% 29.88 in 10.0 mi Calm Calm - N/A   Partly Cloudy
1:53 AM 73.9 °F - 72.0 °F 93% 29.87 in 10.0 mi Calm Calm - N/A   Clear
2:53 AM 73.9 °F - 71.1 °F 91% 29.87 in 7.0 mi Calm Calm - N/A   Clear
3:53 AM 72.0 °F - 71.1 °F 97% 29.86 in 6.0 mi Calm Calm - N/A   Clear
4:53 AM 72.0 °F - 71.1 °F 97% 29.87 in 8.0 mi Calm Calm - N/A   Clear
5:53 AM 71.1 °F - 71.1 °F 100% 29.89 in 6.0 mi Calm Calm - N/A   Clear
6:53 AM 71.1 °F - 71.1 °F 100% 29.90 in 6.0 mi Calm Calm - N/A   Clear
7:53 AM 72.0 °F - 72.0 °F 100% 29.91 in 7.0 mi Calm Calm - N/A   Partly Cloudy
8:53 AM 78.1 °F - 75.0 °F 90% 29.93 in 9.0 mi Calm Calm - N/A   Clear
9:53 AM 82.0 °F 87.4 °F 73.0 °F 74% 29.94 in 10.0 mi SSE 3.5 mph - N/A   Clear
10:53 AM 84.0 °F 90.2 °F 73.0 °F 69% 29.94 in 9.0 mi Calm Calm - N/A   Scattered Clouds
11:10 AM 82.4 °F 88.2 °F 73.4 °F 74% 29.94 in 10.0 mi SE 3.5 mph - N/A   Mostly Cloudy
11:43 AM 84.2 °F 89.6 °F 71.6 °F 66% 29.94 in 10.0 mi ESE 4.6 mph - N/A   Mostly Cloudy
11:53 AM 84.0 °F 90.2 °F 73.0 °F 69% 29.94 in 10.0 mi ESE 6.9 mph - N/A   Mostly Cloudy
12:53 PM 84.0 °F 90.2 °F 73.0 °F 69% 29.93 in 10.0 mi East 6.9 mph - N/A   Mostly Cloudy
1:53 PM 82.9 °F 88.8 °F 73.0 °F 72% 29.92 in 10.0 mi SE 12.7 mph - 0.00 in Rain Rain
2:07 PM 77.0 °F - 73.4 °F 89% 29.93 in 2.5 mi SSE 12.7 mph 25.3 mph 0.06 in Rain Light Rain
2:14 PM 75.2 °F - 73.4 °F 94% 29.94 in 10.0 mi SSW 9.2 mph 20.7 mph 0.06 in   Overcast
2:19 PM 75.2 °F - 73.4 °F 94% 29.96 in 0.8 mi WSW 5.8 mph - 0.18 in Rain Rain
2:23 PM 75.2 °F - 73.4 °F 94% 29.96 in 0.2 mi SW 3.5 mph - 0.31 in Fog , Rain Heavy Rain
2:32 PM 75.2 °F - 73.4 °F 94% 29.95 in 0.2 mi Calm Calm - 0.71 in Fog , Rain Heavy Rain
2:45 PM 75.2 °F - 73.4 °F 94% 29.95 in 1.0 mi Calm Calm - 0.91 in Rain Light Rain
2:48 PM 75.2 °F - 73.4 °F 94% 29.95 in 4.0 mi East 3.5 mph - 0.91 in Rain Light Rain
2:53 PM 75.0 °F - 73.9 °F 96% 29.95 in 9.0 mi ENE 3.5 mph - 0.91 in   Overcast
3:05 PM 75.2 °F - 73.4 °F 94% 29.94 in 9.0 mi ENE 4.6 mph - N/A   Overcast
3:13 PM 75.2 °F - 73.4 °F 94% 29.94 in 8.0 mi NE 3.5 mph - N/A   Overcast
3:22 PM 75.2 °F - 73.4 °F 94% 29.94 in 8.0 mi Calm Calm - 0.00 in Rain Light Rain
3:53 PM 75.0 °F - 73.9 °F 96% 29.94 in 6.0 mi ENE 3.5 mph - 0.02 in Rain Light Rain
4:53 PM 75.9 °F - 75.0 °F 97% 29.94 in 5.0 mi NNE 4.6 mph - 0.05 in Rain Light Rain
5:53 PM 75.0 °F - 73.9 °F 96% 29.95 in 9.0 mi East 4.6 mph - 0.00 in   Overcast
6:14 PM 75.2 °F - 73.4 °F 94% 29.96 in 9.0 mi ESE 4.6 mph - N/A   Overcast
6:23 PM 75.2 °F - 73.4 °F 94% 29.97 in 1.5 mi South 10.4 mph - 0.12 in Rain Light Rain
6:26 PM 75.2 °F - 73.4 °F 94% 29.97 in 0.5 mi SSE 11.5 mph - 0.27 in Fog , Rain Heavy Rain
6:35 PM 73.4 °F - 73.4 °F 100% 29.97 in 2.0 mi SSE 6.9 mph - 0.45 in Rain Heavy Rain
6:42 PM 73.4 °F - 73.4 °F 100% 29.97 in 2.0 mi SSE 4.6 mph - 0.48 in Rain Heavy Rain
6:53 PM 73.0 °F - 73.0 °F 100% 29.96 in 2.0 mi Calm Calm - 0.50 in Rain Rain
7:01 PM 73.4 °F - 73.4 °F 100% 29.97 in 2.0 mi Calm Calm - 0.02 in Rain Rain
7:53 PM 73.0 °F - 73.0 °F 100% 29.97 in 8.0 mi East 5.8 mph - 0.08 in Rain Light Rain
8:53 PM 73.0 °F - 73.0 °F 100% 29.99 in 8.0 mi Calm Calm - 0.02 in Rain Light Rain
9:53 PM 75.0 °F - 75.0 °F 100% 29.99 in 9.0 mi East 3.5 mph - 0.01 in Rain Light Rain
10:53 PM 73.9 °F - 73.9 °F 100% 29.99 in 10.0 mi Calm Calm - 0.00 in   Scattered Clouds
11:53 PM 75.0 °F - 75.0 °F 100% 29.98 in 10.0 mi SE 4.6 mph - 0.00 in Rain Light Rain